Wind_Speed
26 27 23 21 24 24 24 27 28 28 27 23 18 17 19 19 20 19 18 20 23 24 24 24 26 27 26 24 21 18 16 16 16 15 14 13 13 13 14 15 14 14 15
22 28 21 21 23 24 25 26 27 28 28 29 24 21 21 22 23 22 20 21 22 25 28 28 29 29 29 25 21 18 17 16 14 14 13 12 11 9 11 12 13 14 14
19 27 27 23 23 24 24 23 23 26 26 27 27 25 24 24 23 22 21 21 22 24 27 30 28 28 29 27 23 19 17 15 14 14 12 11 10 9 9 11 12 14 14
20 23 24 24 24 25 24 23 23 24 24 25 26 25 25 26 24 23 22 25 25 26 29 31 27 24 24 26 22 19 17 15 13 12 11 10 9 9 9 9 11 14 14
17 20 25 25 24 23 23 22 22 23 24 24 25 25 25 26 27 26 23 25 23 24 28 31 31 25 23 23 21 19 16 14 13 12 12 10 9 8 8 8 11 14 15
19 21 23 22 22 23 23 23 23 23 23 23 24 25 26 28 28 27 25 27 28 25 25 29 32 29 26 24 23 19 15 14 13 12 13 13 10 9 9 9 11 14 15
26 26 25 25 25 26 27 26 27 28 29 28 25 24 26 26 27 27 27 26 28 27 24 29 34 34 31 26 24 20 17 14 14 13 14 14 12 12 12 12 13 14 15
27 27 27 26 25 23 25 26 26 26 29 29 30 27 26 26 26 27 28 28 28 29 26 28 36 37 32 27 24 22 18 16 15 13 14 15 15 14 14 14 15 15 15
29 27 27 28 28 27 27 27 26 25 26 29 30 30 26 25 25 28 30 32 31 29 28 25 29 33 33 27 24 23 20 18 17 14 15 16 17 17 16 15 16 16 15
30 29 30 29 27 27 26 26 26 26 24 23 25 29 30 29 27 26 28 29 29 29 27 26 28 31 31 27 25 24 22 20 19 17 17 19 20 19 18 16 16 17 17
29 29 30 30 29 27 25 23 24 23 21 23 25 26 27 27 26 26 28 28 27 27 28 29 31 28 29 29 30 27 23 23 23 20 19 21 23 21 20 18 17 18 18
29 28 28 29 30 28 28 24 21 21 20 20 20 21 21 22 23 25 28 29 28 28 31 32 31 30 30 30 31 28 25 26 26 23 21 22 23 24 24 23 21 20 19
30 28 27 28 28 29 28 27 23 22 23 22 21 20 20 21 22 24 27 30 31 32 33 34 36 36 36 31 26 25 25 28 30 26 23 23 23 24 27 28 28 26 24
28 27 26 27 27 27 27 27 26 24 23 23 23 24 25 25 25 25 27 30 31 34 35 35 37 39 37 34 31 26 27 30 31 29 26 25 24 24 26 30 32 32 30
13 18 22 23 24 25 26 26 26 25 24 24 24 26 27 27 27 27 28 31 33 34 37 38 37 36 33 32 32 32 32 32 32 32 28 26 25 23 24 27 31 33 33
7 12 17 19 19 22 25 25 23 22 22 23 23 24 26 27 28 29 30 31 34 36 38 39 37 35 35 35 36 38 39 35 34 33 31 28 26 24 23 24 27 31 33
2 6 11 13 13 15 17 19 19 19 19 19 20 21 23 24 26 27 29 31 34 33 33 35 37 36 36 36 33 31 37 39 35 33 32 31 29 27 25 25 26 28 30
7 8 9 9 9 11 12 14 13 13 14 15 16 16 17 19 22 24 27 27 27 30 30 31 34 35 34 33 33 30 29 33 36 34 32 31 29 28 28 28 29 29 30
10 9 10 11 11 11 10 9 8 8 10 11 10 9 10 11 13 16 20 25 26 28 29 29 28 28 30 30 30 28 28 32 34 34 32 32 30 29 28 28 28 30 32
8 8 9 9 8 8 6 5 4 4 6 7 6 6 6 5 5 5 7 18 26 28 28 27 24 23 25 25 24 27 31 32 32 31 30 30 30 29 28 28 29 31 33
4 4 5 4 4 5 5 4 2 2 4 5 5 6 5 3 4 5 7 13 22 24 24 21 22 23 24 23 25 28 30 31 30 29 28 29 29 29 28 29 30 31 32
5 1 2 1 3 5 5 4 3 2 1 2 2 3 4 5 4 2 7 12 16 19 16 14 15 21 27 26 27 26 27 28 29 30 29 29 30 29 29 30 31 32 33
11 9 7 5 6 6 4 3 2 2 1 1 2 3 4 5 5 4 5 9 11 14 16 17 16 16 18 24 28 29 30 30 30 29 31 31 32 31 31 32 33 34 34
15 12 9 7 5 4 2 0 2 3 3 3 2 3 5 6 7 8 8 9 12 14 17 19 18 17 18 21 25 27 28 28 28 29 30 31 31 31 31 32 33 34 35
15 14 11 6 3 1 1 2 4 5 5 5 5 5 5 7 9 11 13 14 16 18 19 20 20 20 20 20 22 24 26 26 27 28 29 29 30 30 30 31 33 34 35
14 13 11 9 5 3 3 4 6 7 7 7 7 7 8 9 10 12 14 15 17 19 20 21 21 21 22 23 24 26 28 28 27 27 28 28 29 30 32 34 35 36 36
Wind_Direction
224 215 218 227 238 243 244 247 244 241 236 233 233 235 239 242 249 251 258 255 242 234 231 233 236 238 237 241 244 248 251 256 265 268 270 266 266 257 239 243 249 251 240
235 225 232 239 244 251 250 248 245 243 237 232 229 238 242 240 243 245 252 251 236 236 237 239 238 238 237 236 239 249 249 253 258 264 264 262 260 255 243 244 242 242 231
240 232 238 247 251 251 250 247 245 241 238 234 234 243 244 243 244 246 250 239 239 244 240 238 233 238 238 233 236 243 247 249 248 254 261 256 243 244 251 247 240 230 218
240 231 232 242 250 252 249 243 241 239 241 238 237 239 240 244 247 249 245 242 244 245 241 234 222 231 230 224 229 237 245 244 242 245 251 241 240 247 252 243 231 216 207
253 252 243 242 250 251 246 240 238 238 239 238 235 236 240 247 249 248 246 239 242 246 240 231 223 225 221 218 224 230 238 237 238 238 236 237 244 240 238 228 217 206 199
269 276 271 257 250 246 245 247 247 242 237 235 236 238 241 244 247 247 248 243 243 246 242 226 218 220 215 217 220 228 234 236 239 230 229 234 231 225 223 216 207 197 191
261 262 267 269 259 250 246 248 250 249 245 240 241 243 240 239 243 247 248 246 239 241 241 227 222 217 209 214 220 227 233 233 231 223 224 224 222 215 213 207 202 196 190
269 265 264 264 260 256 253 251 253 252 245 244 245 243 238 240 245 251 248 241 239 240 240 236 220 209 208 213 220 227 235 232 228 227 221 222 221 213 208 203 201 200 195
271 269 265 262 256 252 252 252 251 250 248 247 240 238 242 242 246 248 245 240 237 236 237 233 219 210 215 215 222 226 231 229 228 229 223 220 216 211 206 202 202 203 201
269 267 263 260 254 250 248 248 248 249 248 243 242 240 243 246 248 244 244 240 236 232 226 219 215 213 216 220 231 228 227 227 225 227 226 222 217 213 209 207 206 206 206
271 265 261 258 254 250 245 244 243 242 241 244 244 240 241 245 245 242 239 236 234 227 219 217 217 214 221 232 242 227 224 226 223 221 221 221 220 218 214 212 211 208 208
269 263 258 255 252 249 244 241 237 232 237 243 241 240 241 245 247 246 239 234 229 222 218 225 232 231 229 233 241 221 218 226 222 218 219 220 222 223 222 223 221 218 220
264 259 255 251 250 246 241 236 232 228 234 242 246 248 254 258 256 249 238 233 230 226 227 229 231 236 236 241 242 223 223 228 221 216 220 224 227 230 229 229 232 233 231
259 253 252 245 244 242 238 234 230 230 235 243 250 256 259 260 258 250 239 232 230 229 229 230 232 233 234 240 242 236 235 232 223 218 222 228 234 236 232 231 232 234 234
248 239 241 237 235 237 233 232 232 232 236 246 252 255 258 258 257 255 247 240 235 230 228 230 234 234 232 238 236 239 238 233 227 221 223 229 234 237 233 231 231 232 234
236 225 223 224 227 230 229 229 231 235 241 250 255 258 260 261 259 256 251 243 238 234 231 227 228 228 226 231 231 236 235 234 226 223 225 231 236 238 236 235 234 233 236
132 186 200 208 216 218 220 221 226 232 240 248 257 262 263 261 257 253 249 242 235 228 226 224 222 224 231 237 241 236 230 226 221 223 227 233 239 242 242 242 243 243 244
76 116 148 170 182 192 197 205 216 231 245 256 261 263 269 270 263 254 245 237 228 220 219 221 222 227 229 232 231 228 223 219 218 223 229 235 242 245 247 247 249 250 251
73 99 124 141 152 161 176 195 218 239 248 248 250 257 277 281 268 254 236 223 214 209 208 211 216 224 225 222 221 222 220 215 219 227 233 238 242 246 249 252 255 256 255
77 92 111 126 146 158 173 193 221 243 235 233 236 250 276 281 270 239 208 202 198 200 203 205 210 220 221 219 221 221 216 215 223 230 235 240 243 245 249 254 258 260 258
72 95 106 109 150 170 170 175 192 213 218 224 233 245 252 239 217 202 197 185 190 198 199 203 206 216 215 221 222 223 218 219 226 232 238 240 242 246 251 256 262 263 261
44 141 198 233 173 178 171 167 168 172 191 214 216 218 213 210 221 226 176 179 185 192 203 198 204 214 223 224 220 223 223 226 233 238 242 245 246 249 254 259 262 263 263
51 72 90 115 143 154 162 184 212 241 245 224 197 178 182 192 191 184 154 172 186 199 201 195 196 200 211 216 216 219 225 234 242 246 249 250 249 251 256 261 263 264 265
53 64 84 108 122 134 152 227 308 308 303 291 256 217 211 213 217 221 220 209 201 202 210 216 219 225 228 226 226 229 235 241 248 251 251 250 250 253 259 262 264 265 267
48 53 59 72 96 112 328 331 337 335 325 315 300 278 254 242 239 239 238 234 229 225 224 227 232 238 240 237 236 238 241 247 251 250 249 249 252 256 261 264 266 267 269
40 43 46 49 48 30 348 325 325 327 325 318 311 301 289 276 266 256 249 245 241 238 236 236 238 244 246 245 241 245 249 253 254 252 251 253 256 259 262 265 268 272 275
Height
5790 5790 5791 5792 5796 5797 5797 5798 5799 5800 5803 5805 5805 5806 5808 5810 5812 5813 5813 5815 5816 5818 5820 5821 5822 5824 5826 5828 5831 5832 5833 5833 5833 5832 5831 5830 5829 5828 5828 5829 5830 5830 5831
5784 5785 5785 5787 5790 5791 5791 5792 5792 5794 5796 5798 5800 5801 5802 5804 5807 5807 5807 5808 5810 5813 5815 5816 5818 5820 5821 5823 5826 5828 5829 5829 5829 5828 5828 5827 5827 5826 5826 5826 5827 5828 5828
5778 5780 5780 5781 5783 5784 5784 5785 5786 5788 5790 5792 5794 5795 5796 5798 5800 5801 5801 5803 5804 5806 5808 5810 5812 5814 5815 5818 5821 5824 5826 5826 5825 5825 5825 5824 5824 5824 5823 5823 5824 5826 5827
5773 5773 5774 5775 5776 5776 5777 5778 5780 5782 5784 5786 5788 5789 5790 5792 5794 5795 5796 5797 5799 5801 5802 5803 5807 5808 5809 5814 5818 5820 5821 5821 5821 5821 5822 5822 5822 5822 5822 5822 5823 5824 5826
5768 5767 5768 5768 5767 5768 5770 5771 5774 5775 5777 5779 5781 5783 5784 5786 5787 5789 5789 5792 5794 5794 5796 5798 5801 5804 5807 5811 5814 5816 5817 5818 5818 5818 5820 5820 5821 5821 5821 5821 5822 5824 5825
5764 5763 5761 5759 5760 5762 5763 5765 5767 5769 5771 5773 5775 5776 5778 5779 5781 5781 5783 5785 5787 5789 5790 5792 5796 5799 5802 5806 5809 5811 5813 5814 5815 5815 5817 5818 5819 5820 5821 5821 5822 5824 5825
5755 5755 5754 5753 5754 5755 5756 5758 5760 5762 5764 5767 5768 5769 5771 5772 5773 5774 5776 5778 5780 5783 5785 5786 5789 5793 5797 5801 5804 5806 5808 5809 5811 5813 5814 5816 5817 5818 5820 5821 5822 5824 5825
5746 5746 5745 5746 5747 5748 5749 5751 5753 5754 5756 5758 5761 5763 5764 5765 5766 5767 5768 5771 5774 5776 5778 5781 5784 5788 5793 5796 5800 5802 5803 5805 5807 5809 5811 5813 5815 5817 5818 5820 5821 5823 5824
5737 5738 5738 5738 5739 5741 5743 5744 5746 5747 5748 5750 5752 5755 5757 5758 5759 5760 5762 5765 5767 5770 5773 5777 5780 5785 5790 5791 5794 5797 5799 5801 5803 5806 5808 5810 5812 5814 5816 5818 5820 5821 5823
5727 5729 5729 5730 5731 5732 5734 5737 5738 5739 5741 5743 5744 5747 5749 5751 5753 5754 5756 5759 5762 5765 5769 5772 5776 5780 5783 5785 5788 5791 5794 5797 5800 5802 5804 5807 5809 5811 5813 5816 5818 5820 5821
5717 5718 5718 5720 5721 5724 5726 5728 5730 5733 5735 5737 5738 5739 5742 5744 5747 5749 5751 5754 5757 5760 5763 5767 5771 5774 5778 5780 5783 5786 5789 5792 5795 5797 5800 5803 5806 5808 5811 5813 5816 5817 5819
5706 5707 5708 5710 5712 5715 5718 5720 5723 5726 5729 5731 5732 5734 5736 5739 5740 5742 5745 5748 5751 5755 5759 5762 5766 5769 5772 5774 5778 5780 5782 5787 5791 5793 5796 5799 5802 5805 5807 5810 5812 5814 5815
5695 5696 5698 5700 5703 5706 5710 5713 5717 5720 5723 5725 5727 5729 5731 5733 5734 5735 5737 5740 5744 5748 5752 5755 5759 5761 5764 5768 5772 5774 5776 5781 5785 5788 5792 5795 5798 5800 5802 5805 5807 5809 5811
5682 5685 5688 5692 5695 5699 5702 5707 5711 5715 5717 5720 5722 5723 5724 5726 5727 5728 5729 5732 5736 5740 5743 5746 5749 5753 5757 5761 5765 5769 5772 5776 5780 5784 5787 5790 5793 5794 5796 5798 5801 5803 5805
5671 5675 5680 5684 5688 5692 5696 5701 5706 5710 5713 5714 5716 5717 5718 5719 5719 5720 5722 5724 5727 5730 5734 5737 5740 5744 5750 5753 5758 5762 5765 5770 5774 5778 5782 5785 5787 5789 5790 5791 5794 5796 5799
5668 5671 5676 5680 5683 5687 5692 5697 5701 5705 5707 5708 5709 5710 5710 5710 5710 5710 5711 5714 5716 5720 5724 5728 5733 5737 5741 5746 5749 5753 5758 5762 5767 5771 5775 5779 5781 5783 5784 5786 5788 5790 5792
5670 5671 5674 5678 5682 5686 5689 5694 5697 5700 5701 5702 5702 5702 5701 5701 5701 5701 5701 5704 5707 5711 5715 5720 5725 5731 5735 5739 5744 5747 5751 5756 5761 5765 5769 5773 5775 5777 5779 5780 5782 5783 5785
5674 5673 5675 5678 5682 5685 5688 5691 5693 5695 5696 5696 5696 5695 5695 5694 5692 5692 5694 5696 5700 5705 5710 5715 5720 5725 5729 5733 5738 5742 5746 5750 5755 5759 5763 5767 5769 5771 5772 5773 5774 5775 5777
5678 5678 5679 5681 5683 5686 5688 5690 5691 5692 5692 5692 5692 5692 5691 5689 5687 5686 5687 5690 5694 5699 5705 5710 5715 5719 5723 5728 5732 5736 5740 5745 5749 5754 5757 5760 5762 5763 5765 5766 5767 5767 5768
5682 5682 5683 5684 5685 5687 5688 5689 5689 5688 5688 5688 5689 5689 5688 5687 5686 5685 5685 5686 5691 5696 5701 5705 5709 5714 5719 5723 5726 5731 5735 5740 5745 5748 5750 5752 5754 5755 5757 5759 5759 5760 5760
5684 5684 5685 5686 5686 5687 5687 5688 5687 5687 5687 5687 5687 5687 5686 5686 5686 5687 5687 5687 5691 5696 5701 5704 5708 5713 5716 5719 5723 5728 5732 5736 5739 5741 5743 5745 5746 5748 5749 5751 5751 5751 5750
5683 5683 5685 5685 5685 5686 5687 5687 5688 5687 5687 5686 5686 5686 5686 5686 5687 5687 5688 5690 5693 5697 5700 5703 5706 5709 5713 5716 5720 5724 5728 5731 5733 5735 5736 5738 5739 5740 5742 5742 5741 5741 5741
5684 5683 5684 5685 5686 5687 5688 5689 5688 5688 5687 5687 5687 5686 5687 5687 5688 5689 5690 5692 5694 5697 5699 5702 5704 5706 5709 5713 5716 5719 5722 5724 5726 5728 5730 5731 5732 5733 5733 5733 5732 5732 5731
5687 5686 5686 5687 5688 5689 5689 5689 5689 5689 5688 5687 5687 5687 5687 5688 5688 5689 5691 5692 5694 5696 5698 5701 5702 5704 5707 5709 5712 5715 5717 5719 5720 5721 5723 5724 5724 5724 5724 5724 5723 5723 5722
5691 5689 5689 5689 5689 5690 5690 5690 5690 5689 5688 5687 5687 5687 5687 5687 5687 5688 5689 5690 5692 5693 5695 5697 5699 5701 5703 5705 5707 5709 5711 5712 5713 5714 5715 5716 5716 5716 5715 5714 5713 5712 5711
5694 5693 5691 5691 5690 5690 5690 5689 5689 5688 5687 5687 5686 5686 5686 5686 5686 5686 5686 5687 5688 5689 5691 5692 5694 5695 5697 5700 5702 5703 5704 5705 5706 5706 5707 5707 5707 5707 5706 5704 5703 5702 5701